STARLINK-33783, 63712

Orbit data source: Space-Track

STARLINK-33783, 63712 is a payload satellite owned by SpaceX/Seattle (US) in LEO that was launched on Mon, 28 Apr 2025 UTC via an FALCON 9 launch vehicle from the Air Force Western Test Range (AFWTR). Payload-class satellites include a variety of spacecraft equipped with specific instruments for various scientific and technological missions. These include communications satellites like Starlink; space stations such as the ISS; scientific satellites like the Hubble; Earth observation satellites from companies like Planet Labs, Umbra, and HawkEye 360; GPS; miniature CubeSats for education and research; and military/defense satellites.

Loading next visibility...
Identifier
63712, 2025-087R
Orbit
LEO
Country
Flag of USUS
Related business
Manufacturer
SpaceX/Seattle
Mission
Operational Commercial Communications
Bus & Motor
STARLINK V2MO, Unknown motor
Mass
575 kg wet, ~530 kg dry
Launch date (UTC)
2025-04-28 (8 months ago)
Launch vehicle
FALCON 9
Launch site
Air Force Western Test Range (AFWTR)
Object type
Payload
Rocket body
Debris
Shape & HBR
Box + 2 Pan, 17.7 m
Radar Cross Section
36.964 m², Large (>1 m²)

Expand to show TLE details & history
Last TLE update: 6 hours ago

TLE from 6 hours ago
0 STARLINK-33783
1 63712U 25087R   25349.93555199  .00013768  00000-0  47596-3 0  9999
2 63712  53.1582 248.7881 0001087  57.8279 302.2827 15.30210366 36377
Epoch: 2025-12-15T22:27Z
TLE epoch observation values (Epoch: 2025-12-15T22:27:11.691Z)
Latitude
-0.00005°
Longitude
-172.83763°
Altitude
475.686 km
Speed
7.629 km/s
True Right ascension
16h 35m 09s
True Declination
0° 00' 00"
Sunlit
Object was in daylight at epoch
Visualization orbit readout
Latitude
Unknown
Longitude
Unknown
Altitude
Unknown
Speed
Unknown
Apparent Right ascension
Unknown
Apparent Declination
Unknown
Sunlit
N/A
Visualization observer readout
Local Sidereal Time
03:06:50
Azimuth
Unknown
Elevation
Unknown
Doppler factor
Unknown
Orbital elements
Apogee altitude
476.186 km
Perigee altitude
474.696 km
Semi-major axis
6,853.578 km
Eccentricity
0.00011
Inclination
53.1582°
RAAN
248.7881°
Arg. of periapsis
57.8279°
True anomaly
302.27217°
Mean anomaly
302.2827°
Eccentric anomaly
302.27743°
Mean motion
3.82531 °/min
Orbital period
94.11 mins
BSTAR
0.00047596
Loading maneuver chart data...
Computing Atmospheric mass density...
Loading historical data...
Loading historical data...
Loading historical data...
Loading historical data...
Loading historical data...
Loading historical data...
Loading historical data...

Documentation

Showing up to 5 results
|